User: anonymous
Location: Brno
(49.2000°N, 16.6330°E)
Time: 17:59:31
(UTC+02:00)
Language:

Meteor 1-4 Rocket - Orbit

View from above orbital plane
View from above orbital plane
View from above satellite
View from above satellite

Ground track
Ground track

The orbit data is extracted from the following two-line orbital elements,

1 04394U 70037B   14261.50668334  .00003701  00000-0  16113-3 0  6720
2 04394 081.2440 107.7002 0046924 296.0907 063.5499 15.20948143411892
Epoch (UTC): 18 September 2014 12:09:37
Eccentricity: 0.0046924
inclination: 81.2440°
perigee height: 470 km
apogee height: 535 km
right ascension of ascending node: 107.7002°
argument of perigee: 296.0907°
revolutions per day: 15.20948143
mean anomaly at epoch: 63.5499°
orbit number at epoch: 41189

The dashed part of the orbit path shows where the satellite is in the earth's shadow,  

DLR